{"data":{"norad_id":68072,"epoch":"2026-05-24T19:49:36.596928Z","epoch_age_seconds":100108,"freshness":"FRESH","line1":"1 68072U 26042D   26144.82611802  .00014433  00000+0  43749-3 0  9996","line2":"2 68072  53.1588 184.2419 0001227  89.1175 270.9969 15.34397819 13979","mean_motion":15.34397819,"eccentricity":0.0001227,"inclination_deg":53.1588,"raan_deg":184.2419,"arg_perigee_deg":89.1175,"mean_anomaly_deg":270.9969,"bstar":0.00043749,"rev_number":1397,"period_min":93.847891476963,"perigee_km":461.87035071355,"apogee_km":463.54909449927,"semimajor_km":6840.8467226064,"source":"CELESTRAK","updated_at":"2026-05-25T13:38:21.817696Z"}}